| time (UTC) | temp F | wind direction | speed knots | gust knots | rain 1hr in | rain 24hr in | rain mn in | humidity % | barometer mb |
| 20260506192515 | 63 | 235 | 1.7 | 5.2 | 0.00 | 0.18 | 0.18 | 91 | 1007.5 |
| 20260506191516 | 63 | 241 | 1.7 | 6.1 | 0.00 | 0.18 | 0.18 | 91 | 1007.5 |
| 20260506190516 | 63 | 238 | 1.7 | 4.3 | 0.00 | 0.18 | 0.18 | 90 | 1007.6 |
| 20260506185516 | 63 | 226 | 1.7 | 6.1 | 0.00 | 0.18 | 0.18 | 90 | 1007.6 |
| 20260506184516 | 64 | 242 | 2.6 | 7.8 | 0.00 | 0.18 | 0.18 | 89 | 1007.6 |
| 20260506183517 | 64 | 233 | 1.7 | 5.2 | 0.00 | 0.18 | 0.18 | 89 | 1007.6 |
| 20260506182517 | 64 | 244 | 2.6 | 4.3 | 0.00 | 0.18 | 0.18 | 89 | 1007.6 |
| 20260506181517 | 64 | 240 | 2.6 | 5.2 | 0.01 | 0.18 | 0.18 | 89 | 1007.6 |
| 20260506180517 | 64 | 256 | 1.7 | 3.5 | 0.02 | 0.18 | 0.18 | 89 | 1007.7 |
| 20260506175557 | 64 | 246 | 0.9 | 1.7 | 0.03 | 0.18 | 0.18 | 88 | 1008.0 |
| 20260506174517 | 64 | 245 | 1.7 | 3.5 | 0.04 | 0.18 | 0.18 | 88 | 1008.1 |
| 20260506173517 | 64 | 247 | 1.7 | 4.3 | 0.05 | 0.18 | 0.18 | 88 | 1008.1 |
| 20260506172518 | 64 | 237 | 1.7 | 3.5 | 0.08 | 0.18 | 0.18 | 88 | 1008.1 |
| 20260506171518 | 64 | 207 | 1.7 | 4.3 | 0.09 | 0.18 | 0.18 | 88 | 1007.9 |
| 20260506170515 | 64 | 217 | 2.6 | 7.0 | 0.11 | 0.16 | 0.16 | 87 | 1008.0 |
| 20260506165515 | 64 | 191 | 2.6 | 6.1 | 0.12 | 0.15 | 0.15 | 87 | 1008.1 |
| 20260506164515 | 64 | 214 | 1.7 | 4.3 | 0.12 | 0.14 | 0.14 | 88 | 1008.5 |
| 20260506163515 | 64 | 205 | 0.9 | 2.6 | 0.12 | 0.13 | 0.13 | 88 | 1008.8 |
| 20260506162516 | 64 | 253 | 0.9 | 2.6 | 0.10 | 0.11 | 0.11 | 87 | 1009.2 |
| 20260506161516 | 64 | 242 | 1.7 | 3.5 | 0.08 | 0.08 | 0.08 | 84 | 1009.2 |
| 20260506160516 | 65 | 254 | 1.7 | 2.6 | 0.06 | 0.06 | 0.06 | 82 | 1009.4 |
| 20260506155516 | 66 | 258 | 1.7 | 3.5 | 0.03 | 0.03 | 0.03 | 78 | 1009.5 |
| 20260506154536 | 67 | 257 | 2.6 | 5.2 | 0.02 | 0.02 | 0.02 | 75 | 1009.4 |
| 20260506153517 | 67 | 257 | 3.5 | 7.8 | 0.01 | 0.01 | 0.01 | 72 | 1009.3 |
| 20260506152536 | 68 | 254 | 3.5 | 7.0 | 0.01 | 0.01 | 0.01 | 70 | 1009.3 |
| 20260506151517 | 69 | 257 | 4.3 | 7.0 | 0.00 | 0.00 | 0.00 | 67 | 1009.1 |
| 20260506150517 | 69 | 243 | 3.5 | 7.0 | 0.00 | 0.00 | 0.00 | 66 | 1009.2 |
| 20260506145517 | 69 | 258 | 4.3 | 7.8 | 0.00 | 0.00 | 0.00 | 65 | 1009.3 |
| 20260506144517 | 70 | 235 | 4.3 | 9.6 | 0.00 | 0.00 | 0.00 | 64 | 1009.4 |
| 20260506143518 | 70 | 241 | 4.3 | 7.8 | 0.00 | 0.00 | 0.00 | 64 | 1009.3 |
| 20260506142538 | 70 | 263 | 5.2 | 11.3 | 0.00 | 0.00 | 0.00 | 64 | 1009.4 |
| 20260506141518 | 69 | 255 | 3.5 | 8.7 | 0.00 | 0.00 | 0.00 | 65 | 1009.2 |
| 20260506140535 | 69 | 269 | 2.6 | 5.2 | 0.00 | 0.00 | 0.00 | 66 | 1009.3 |
| 20260506135515 | 69 | 235 | 4.3 | 8.7 | 0.00 | 0.00 | 0.00 | 66 | 1009.3 |
| 20260506134515 | 69 | 229 | 4.3 | 8.7 | 0.00 | 0.00 | 0.00 | 65 | 1009.3 |
| 20260506133516 | 69 | 256 | 2.6 | 6.1 | 0.00 | 0.00 | 0.00 | 66 | 1009.5 |
| 20260506132555 | 68 | 248 | 4.3 | 8.7 | 0.00 | 0.00 | 0.00 | 66 | 1009.6 |
| 20260506131516 | 68 | 242 | 3.5 | 7.0 | 0.00 | 0.00 | 0.00 | 66 | 1009.5 |
| 20260506130516 | 68 | 243 | 4.3 | 7.8 | 0.00 | 0.00 | 0.00 | 67 | 1009.7 |
| 20260506125516 | 68 | 253 | 4.3 | 7.8 | 0.00 | 0.00 | 0.00 | 67 | 1009.4 |
| 20260506124516 | 68 | 261 | 3.5 | 7.8 | 0.00 | 0.00 | 0.00 | 67 | 1009.2 |
| 20260506123537 | 68 | 225 | 3.5 | 7.8 | 0.00 | 0.00 | 0.00 | 67 | 1009.1 |
| 20260506122537 | 67 | 232 | 3.5 | 7.0 | 0.00 | 0.00 | 0.00 | 68 | 1009.3 |
| 20260506121517 | 67 | 239 | 3.5 | 8.7 | 0.00 | 0.00 | 0.00 | 70 | 1009.5 |
| 20260506120517 | 66 | 237 | 2.6 | 7.0 | 0.00 | 0.00 | 0.00 | 70 | 1009.4 |
| 20260506115517 | 66 | 262 | 3.5 | 7.0 | 0.00 | 0.00 | 0.00 | 71 | 1009.5 |
| 20260506114517 | 66 | 232 | 3.5 | 7.8 | 0.00 | 0.00 | 0.00 | 71 | 1009.8 |
| 20260506113518 | 66 | 232 | 4.3 | 9.6 | 0.00 | 0.00 | 0.00 | 71 | 1009.7 |
| 20260506112518 | 66 | 225 | 2.6 | 6.1 | 0.00 | 0.00 | 0.00 | 72 | 1009.6 |
| 20260506111518 | 65 | 206 | 3.5 | 7.0 | 0.00 | 0.00 | 0.00 | 73 | 1009.6 |
| 20260506110515 | 65 | 213 | 2.6 | 6.1 | 0.00 | 0.00 | 0.00 | 74 | 1009.6 |
| 20260506105521 | 65 | 220 | 2.6 | 5.2 | 0.00 | 0.00 | 0.00 | 75 | 1009.4 |
| 20260506104515 | 64 | 195 | 2.6 | 6.1 | 0.00 | 0.00 | 0.00 | 75 | 1009.3 |
| 20260506103515 | 64 | 207 | 2.6 | 3.5 | 0.00 | 0.00 | 0.00 | 76 | 1009.3 |
| 20260506102515 | 64 | 207 | 2.6 | 7.8 | 0.00 | 0.00 | 0.00 | 76 | 1009.4 |
| 20260506101516 | 64 | 196 | 2.6 | 4.3 | 0.00 | 0.00 | 0.00 | 75 | 1009.4 |
| 20260506100536 | 65 | 206 | 2.6 | 5.2 | 0.00 | 0.00 | 0.00 | 75 | 1009.3 |
| 20260506095516 | 65 | 211 | 2.6 | 6.1 | 0.00 | 0.00 | 0.00 | 75 | 1009.1 |
| 20260506094536 | 65 | 213 | 3.5 | 8.7 | 0.00 | 0.00 | 0.00 | 75 | 1009.1 |
| 20260506093516 | 65 | 206 | 2.6 | 6.1 | 0.00 | 0.00 | 0.00 | 75 | 1009.2 |
| 20260506092516 | 64 | 216 | 2.6 | 3.5 | 0.00 | 0.00 | 0.00 | 76 | 1009.1 |
| 20260506091516 | 64 | 216 | 2.6 | 5.2 | 0.00 | 0.00 | 0.00 | 76 | 1009.2 |
| 20260506090537 | 64 | 214 | 2.6 | 6.1 | 0.00 | 0.00 | 0.00 | 77 | 1009.3 |
| 20260506085516 | 64 | 213 | 0.9 | 1.7 | 0.00 | 0.00 | 0.00 | 76 | 1009.4 |
| 20260506084532 | 65 | 189 | 1.7 | 5.2 | 0.00 | 0.00 | 0.00 | 75 | 1009.4 |
| 20260506083517 | 65 | 106 | 0.9 | 2.6 | 0.00 | 0.00 | 0.00 | 76 | 1009.5 |
| 20260506082516 | 65 | 155 | 0.9 | 2.6 | 0.00 | 0.00 | 0.00 | 74 | 1009.5 |
| 20260506081516 | 65 | 211 | 0.9 | 2.6 | 0.00 | 0.00 | 0.00 | 74 | 1009.6 |
| 20260506080516 | 65 | 235 | 1.7 | 3.5 | 0.00 | 0.00 | 0.00 | 74 | 1009.5 |
| 20260506073515 | 66 | 204 | 1.7 | 3.5 | 0.00 | 0.00 | 0.00 | 73 | 1009.6 |
| 20260506072516 | 66 | 182 | 1.7 | 5.2 | 0.00 | 0.00 | 0.00 | 72 | 1009.6 |
| 20260506071516 | 66 | 232 | 0.9 | 4.3 | 0.00 | 0.00 | 0.00 | 72 | 1009.6 |
| 20260506070536 | 66 | 308 | 0.9 | 2.6 | 0.00 | 0.00 | 0.00 | 71 | 1009.7 |
| 20260506062517 | 67 | 211 | 0.9 | 3.5 | 0.00 | 0.00 | 0.00 | 68 | 1010.0 |
| 20260506061517 | 67 | 225 | 1.7 | 4.3 | 0.00 | 0.00 | 0.00 | 68 | 1010.0 |
| 20260506060517 | 67 | 239 | 0.9 | 3.5 | 0.00 | 0.00 | 0.00 | 67 | 1010.0 |
| 20260506050515 | 68 | 218 | 1.7 | 3.5 | 0.00 | 0.00 | 0.00 | 63 | 1010.4 |
| 20260506044516 | 68 | 225 | 1.7 | 7.0 | 0.00 | 0.00 | 0.00 | 62 | 1010.4 |
| 20260506043515 | 69 | 239 | 0.9 | 3.5 | 0.00 | 0.00 | 0.00 | 61 | 1010.4 |
| 20260506042516 | 69 | 215 | 2.6 | 6.1 | 0.00 | 0.00 | 0.00 | 60 | 1010.4 |
| 20260506041536 | 69 | 234 | 1.7 | 6.1 | 0.00 | 0.00 | 0.00 | 59 | 1010.5 |
| 20260506040516 | 69 | 243 | 1.7 | 3.5 | 0.00 | 0.00 | 0.00 | 59 | 1010.4 |
| 20260506035516 | 69 | 225 | 1.7 | 3.5 | 0.00 | 0.00 | 0.00 | 58 | 1010.4 |
| 20260506034516 | 70 | 227 | 2.6 | 7.0 | 0.00 | 0.00 | 0.00 | 57 | 1010.3 |
| 20260506033517 | 70 | 237 | 1.7 | 5.2 | 0.00 | 0.00 | 0.00 | 57 | 1010.3 |
| 20260506032517 | 70 | 215 | 2.6 | 5.2 | 0.00 | 0.00 | 0.00 | 56 | 1010.3 |
| 20260506031517 | 70 | 213 | 1.7 | 4.3 | 0.00 | 0.00 | 0.00 | 55 | 1010.3 |
| 20260506030517 | 70 | 233 | 1.7 | 6.1 | 0.00 | 0.00 | 0.00 | 55 | 1010.3 |
| 20260506025518 | 71 | 222 | 2.6 | 6.1 | 0.00 | 0.00 | 0.00 | 54 | 1010.2 |
| 20260506024517 | 71 | 218 | 2.6 | 6.1 | 0.00 | 0.00 | 0.00 | 54 | 1010.1 |
| 20260506023517 | 71 | 218 | 2.6 | 7.0 | 0.00 | 0.00 | 0.00 | 53 | 1010.2 |
| 20260506022518 | 72 | 238 | 2.6 | 5.2 | 0.00 | 0.00 | 0.00 | 52 | 1010.2 |
| 20260506021518 | 72 | 229 | 2.6 | 7.0 | 0.00 | 0.00 | 0.00 | 52 | 1010.1 |
| 20260506020515 | 72 | 239 | 1.7 | 6.1 | 0.00 | 0.00 | 0.00 | 51 | 1010.1 |
| 20260506015515 | 73 | 219 | 2.6 | 6.1 | 0.00 | 0.00 | 0.00 | 50 | 1010.0 |
| 20260506014515 | 73 | 215 | 2.6 | 7.0 | 0.00 | 0.00 | 0.00 | 49 | 1009.9 |
| 20260506013515 | 74 | 210 | 4.3 | 8.7 | 0.00 | 0.00 | 0.00 | 47 | 1009.9 |
| 20260506012516 | 74 | 223 | 3.5 | 7.0 | 0.00 | 0.00 | 0.00 | 45 | 1009.8 |
| 20260506011516 | 75 | 199 | 3.5 | 9.6 | 0.00 | 0.00 | 0.00 | 42 | 1009.6 |
| 20260506010516 | 75 | 222 | 3.5 | 6.1 | 0.00 | 0.00 | 0.00 | 41 | 1009.4 |
| 20260506005516 | 76 | 191 | 2.6 | 6.1 | 0.00 | 0.00 | 0.00 | 39 | 1009.3 |
| 20260506004536 | 76 | 219 | 3.5 | 7.0 | 0.00 | 0.00 | 0.00 | 37 | 1009.1 |
| 20260506003517 | 77 | 218 | 5.2 | 8.7 | 0.00 | 0.00 | 0.00 | 37 | 1009.0 |
| 20260506002516 | 77 | 227 | 2.6 | 5.2 | 0.00 | 0.00 | 0.00 | 37 | 1008.9 |
| 20260506001517 | 77 | 249 | 1.7 | 6.1 | 0.00 | 0.00 | 0.00 | 37 | 1008.9 |
| 20260506000517 | 78 | 227 | 3.5 | 7.0 | 0.00 | 0.00 | 0.00 | 36 | 1008.8 |
| 20260505235537 | 78 | 223 | 4.3 | 8.7 | 0.00 | 0.00 | 0.00 | 35 | 1008.8 |
| 20260505234517 | 79 | 233 | 5.2 | 9.6 | 0.00 | 0.00 | 0.00 | 34 | 1008.7 |
| 20260505233558 | 79 | 219 | 3.5 | 7.8 | 0.00 | 0.00 | 0.00 | 32 | 1008.6 |
| 20260505232518 | 80 | 249 | 3.5 | 8.7 | 0.00 | 0.00 | 0.00 | 31 | 1008.4 |
| 20260505231518 | 80 | 254 | 5.2 | 12.2 | 0.00 | 0.00 | 0.00 | 30 | 1008.3 |
| 20260505230518 | 80 | 232 | 4.3 | 10.4 | 0.00 | 0.00 | 0.00 | 30 | 1008.2 |
| 20260505225515 | 80 | 240 | 4.3 | 7.8 | 0.00 | 0.00 | 0.00 | 29 | 1008.0 |
| 20260505224515 | 80 | 233 | 3.5 | 7.0 | 0.00 | 0.00 | 0.00 | 28 | 1007.9 |
| 20260505223515 | 81 | 248 | 5.2 | 8.7 | 0.00 | 0.00 | 0.00 | 28 | 1007.9 |
| 20260505222516 | 81 | 255 | 5.2 | 8.7 | 0.00 | 0.00 | 0.00 | 28 | 1008.0 |
| 20260505221516 | 81 | 254 | 4.3 | 8.7 | 0.00 | 0.00 | 0.00 | 27 | 1008.0 |
| 20260505220516 | 81 | 249 | 4.3 | 7.8 | 0.00 | 0.00 | 0.00 | 26 | 1007.9 |
| 20260505215516 | 82 | 254 | 5.2 | 13.0 | 0.00 | 0.00 | 0.00 | 25 | 1007.8 |
| 20260505214516 | 82 | 252 | 6.1 | 10.4 | 0.00 | 0.00 | 0.00 | 25 | 1007.6 |
| 20260505213516 | 83 | 241 | 7.0 | 11.3 | 0.00 | 0.00 | 0.00 | 24 | 1007.5 |
| 20260505212536 | 83 | 252 | 7.0 | 12.2 | 0.00 | 0.00 | 0.00 | 25 | 1007.5 |
| 20260505211517 | 84 | 260 | 6.1 | 11.3 | 0.00 | 0.00 | 0.00 | 25 | 1007.4 |
| 20260505210517 | 84 | 258 | 6.1 | 11.3 | 0.00 | 0.00 | 0.00 | 25 | 1007.4 |
| 20260505205517 | 84 | 246 | 5.2 | 10.4 | 0.00 | 0.00 | 0.00 | 26 | 1007.5 |
| 20260505204517 | 84 | 246 | 5.2 | 12.2 | 0.00 | 0.00 | 0.00 | 26 | 1007.4 |
| 20260505203517 | 84 | 237 | 5.2 | 11.3 | 0.00 | 0.00 | 0.00 | 26 | 1007.5 |
| 20260505202517 | 84 | 254 | 5.2 | 9.6 | 0.00 | 0.00 | 0.00 | 28 | 1007.4 |
| 20260505201518 | 84 | 253 | 6.1 | 9.6 | 0.00 | 0.00 | 0.00 | 28 | 1007.5 |
| 20260505200538 | 84 | 252 | 6.1 | 12.2 | 0.00 | 0.00 | 0.00 | 28 | 1007.6 |
| 20260505195515 | 83 | 257 | 7.0 | 11.3 | 0.00 | 0.00 | 0.00 | 28 | 1007.7 |
| 20260505194515 | 83 | 248 | 7.0 | 14.8 | 0.00 | 0.00 | 0.00 | 28 | 1007.8 |
| 20260505193516 | 84 | 229 | 6.1 | 12.2 | 0.00 | 0.00 | 0.00 | 28 | 1007.9 |